BREEZE-M DEB (TANK), 37828

Orbit data source: Space-Track

BREEZE-M DEB (TANK), 37828 is space debris in HEO originally from a launch on Thu, 29 Sep 2011 UTC launched from the Tyuratam Missile And Space Complex (TTMTR). Debris objects in space refer to the collection of defunct objects orbiting the Earth. Examples of debris include non-operational satellites, rocket bodies, and fragments generated from explosions, collisions, or faulty payload assembly.

Loading next visibility...
Identifier
37828, 2011-054C
Orbit
HEO
Last TLE update
1 day ago
Origin
Manufacturer
Khrunichev
Mission
Spacecraft
Bus & Motor
BRIZ TANK, Unknown motor
Mass
~1,000 kg wet, 1,000 kg dry
Launch date (UTC)
2011-09-29 (14 years ago)
Launch vehicle
Unknown
Launch site
Tyuratam Missile And Space Complex (TTMTR)
Object type
Payload
Rocket body
Debris
Shape & HBR
Torus, 4 m
Radar Cross Section
8.218 m², Large (>1 m²)

Expand to show TLE details & history

TLE from 1 day ago
0 BREEZE-M DEB (TANK)
1 37828U 11054C   25128.34890491  .00002658  00000-0  58842-3 0  9996
2 37828  49.4462 246.1569 5502090 288.9150  20.9931  4.79852946228556
Epoch: 2025-05-08T08:22Z
Definitive object data (Epoch: 2025-05-08T08:22:25.384Z)
Latitude
-0.00004°
Longitude
-105.89485°
Altitude
2,411.596 km
Speed
7.991 km/s
True Right ascension
16h 24m 31s
True Declination
0° 00' 00"
Sunlit
Object was in full shadow at TLE epoch
Visualization TLE readout
Latitude
44.46244°
Longitude
16.22851°
Altitude
16,598.626 km
Speed
2.804 km/s
Apparent Right ascension
00h 24m 16s
Apparent Declination
46° 07' 52"
Sunlit
Object is in daylight
Visualization observer readout
Local Sidereal Time
00:53:37
Azimuth
321.654° NNW
Elevation
81.797°
Doppler factor
1
Orbital elements
Apogee altitude
16,640.18 km
Perigee altitude
300.596 km
Semi-major axis
14,848.525 km
Eccentricity
0.550209
Inclination
49.4462°
RAAN
246.1569°
Arg. of periapsis
288.915°
True anomaly
71.15809°
Mean anomaly
20.9931°
Eccentric anomaly
42.14742°
Mean motion
1.19955 °/min
BSTAR
0.00058842
Orbital period
300.11 mins
Loading maneuver chart data...
Loading SW <> Apogee altitude chart data...
Loading historical data...
Loading historical data...
Loading historical data...
Loading historical data...
Loading historical data...
Loading historical data...
Loading historical data...
Other satellites on launch #54 in the year 2011 (2011-09-29 UTC)

BREEZE-M DEB (TANK) Visibility forecast

Observer location: undefined°, undefined°

Span
Click to sort rows by Start time (UTC) header in descending order
Start Az.
Max El. time (UTC)
Max El. Az.
Max El.
End time (UTC)
End Az.
107 mins2025-05-09 16:43:06.469Z321.496° NNW2025-05-09 17:05:06.469Z84.118° E44.999°2025-05-09 18:30:06.469Z143.309° SSE
125 mins2025-05-09 21:05:06.469Z312.706° NW2025-05-09 22:14:06.469Z292.778° NW18.019°2025-05-09 23:10:06.469Z261.3° W
203 mins2025-05-10 10:29:06.469Z226.016° WSW2025-05-10 10:57:06.469Z137.258° SSE44.984°2025-05-10 13:52:06.469Z82.05° E
44 mins2025-05-10 15:59:06.469Z295.54° NW2025-05-10 16:43:06.469Z301.908° NW35.177°2025-05-10 16:43:06.469Z301.908° NW
|